Tiempo cada hora Almaly

Hoy, 30 Julio, Viernes

Tiempo Temperatura Precipitaciones Viento Presión Humedad
00:00 +28°C° 0 mm 3 mps 762 mmHg 29%
01:00 +27°C° 0 mm 2 mps 762 mmHg 31%
02:00 +27°C° 0 mm 2 mps 762 mmHg 33%
03:00 +26°C° 0 mm 2 mps 762 mmHg 35%
04:00 +27°C° 0 mm 2 mps 762 mmHg 34%
05:00 +28°C° 0 mm 2 mps 762 mmHg 33%
06:00 +28°C° 0 mm 2 mps 762 mmHg 32%
07:00 +30°C° 0 mm 2 mps 762 mmHg 28%
08:00 +33°C° 0 mm 3 mps 762 mmHg 24%
09:00 +34°C° 0 mm 3 mps 762 mmHg 20%
10:00 +35°C° 0 mm 4 mps 762 mmHg 19%
11:00 +36°C° 0 mm 4 mps 762 mmHg 19%
12:00 +37°C° 0 mm 4 mps 762 mmHg 18%
13:00 +37°C° 0 mm 5 mps 761 mmHg 18%
14:00 +37°C° 0 mm 5 mps 761 mmHg 18%
15:00 +37°C° 0 mm 5 mps 761 mmHg 18%
16:00 +36°C° 0 mm 5 mps 761 mmHg 19%
17:00 +35°C° 0 mm 5 mps 760 mmHg 20%
18:00 +35°C° 0 mm 5 mps 760 mmHg 21%
19:00 +34°C° 0 mm 4 mps 760 mmHg 22%
20:00 +31°C° 0 mm 3 mps 760 mmHg 23%
21:00 +30°C° 0 mm 3 mps 760 mmHg 24%
22:00 +30°C° 0 mm 3 mps 760 mmHg 24%
23:00 +29°C° 0 mm 3 mps 760 mmHg 24%

Mañana, 31 Julio, Sábado

Tiempo Temperatura Precipitaciones Viento Presión Humedad
00:00 +29°C° 0 mm 2 mps 760 mmHg 23%
01:00 +28°C° 0 mm 2 mps 760 mmHg 25%
02:00 +27°C° 0 mm 2 mps 760 mmHg 27%
03:00 +27°C° 0 mm 2 mps 760 mmHg 29%
04:00 +27°C° 0 mm 2 mps 760 mmHg 27%
05:00 +28°C° 0 mm 2 mps 761 mmHg 26%
06:00 +29°C° 0 mm 1 mps 761 mmHg 24%
07:00 +31°C° 0 mm 1 mps 761 mmHg 21%
08:00 +33°C° 0 mm 1 mps 761 mmHg 18%
09:00 +34°C° 0 mm 1 mps 761 mmHg 15%
10:00 +37°C° 0 mm 2 mps 760 mmHg 13%
11:00 +38°C° 0 mm 3 mps 760 mmHg 12%
12:00 +40°C° 0 mm 4 mps 760 mmHg 11%
13:00 +40°C° 0 mm 5 mps 760 mmHg 10%
14:00 +40°C° 0 mm 5 mps 760 mmHg 10%
15:00 +40°C° 0 mm 5 mps 760 mmHg 10%
16:00 +40°C° 0 mm 4 mps 760 mmHg 10%
17:00 +38°C° 0 mm 4 mps 760 mmHg 11%
18:00 +38°C° 0 mm 3 mps 759 mmHg 11%
19:00 +36°C° 0 mm 3 mps 760 mmHg 12%
20:00 +35°C° 0 mm 3 mps 760 mmHg 14%
21:00 +34°C° 0 mm 2 mps 760 mmHg 15%
22:00 +32°C° 0 mm 2 mps 760 mmHg 16%
23:00 +31°C° 0 mm 2 mps 760 mmHg 16%

Pasado mañana, 1 Agosto, Domingo

Tiempo Temperatura Precipitaciones Viento Presión Humedad
00:00 +31°C° 0 mm 2 mps 760 mmHg 17%
01:00 +30°C° 0 mm 2 mps 760 mmHg 17%
02:00 +30°C° 0 mm 2 mps 760 mmHg 18%
03:00 +30°C° 0 mm 2 mps 760 mmHg 18%
04:00 +30°C° 0 mm 2 mps 760 mmHg 18%
05:00 +31°C° 0 mm 2 mps 761 mmHg 18%
06:00 +32°C° 0 mm 2 mps 761 mmHg 17%
07:00 +34°C° 0 mm 2 mps 761 mmHg 15%
08:00 +36°C° 0 mm 2 mps 761 mmHg 14%
09:00 +38°C° 0 mm 2 mps 761 mmHg 12%
10:00 +39°C° 0 mm 1 mps 761 mmHg 11%
11:00 +40°C° 0 mm 1 mps 760 mmHg 10%
12:00 +38°C° 0 mm 0 mps 760 mmHg 9%
13:00 +41°C° 0 mm 1 mps 760 mmHg 9%
14:00 +41°C° 0 mm 1 mps 760 mmHg 9%
15:00 +42°C° 0 mm 2 mps 759 mmHg 9%
16:00 +42°C° 0 mm 3 mps 759 mmHg 10%
17:00 +40°C° 0 mm 3 mps 759 mmHg 11%
18:00 +41°C° 0 mm 4 mps 759 mmHg 11%
19:00 +38°C° 0 mm 4 mps 760 mmHg 12%
20:00 +37°C° 0 mm 3 mps 760 mmHg 14%
21:00 +36°C° 0 mm 3 mps 760 mmHg 15%
22:00 +35°C° 0 mm 3 mps 760 mmHg 15%
23:00 +35°C° 0 mm 3 mps 760 mmHg 16%

2 Agosto, Lunes

Tiempo Temperatura Precipitaciones Viento Presión Humedad
00:00 +34°C° 0 mm 3 mps 760 mmHg 16%
01:00 +34°C° 0 mm 3 mps 760 mmHg 20%
02:00 +33°C° 0 mm 3 mps 760 mmHg 24%
03:00 +31°C° 0 mm 3 mps 760 mmHg 27%
04:00 +33°C° 0 mm 3 mps 760 mmHg 27%
05:00 +34°C° 0 mm 3 mps 760 mmHg 27%
06:00 +34°C° 0 mm 3 mps 761 mmHg 27%
07:00 +36°C° 0 mm 2 mps 761 mmHg 23%
08:00 +38°C° 0 mm 2 mps 761 mmHg 20%
09:00 +40°C° 0 mm 2 mps 761 mmHg 16%
10:00 +41°C° 0 mm 2 mps 760 mmHg 14%
11:00 +41°C° 0 mm 2 mps 760 mmHg 13%
12:00 +42°C° 0 mm 2 mps 760 mmHg 11%
13:00 +43°C° 0 mm 3 mps 760 mmHg 11%
14:00 +44°C° 0 mm 3 mps 759 mmHg 11%
15:00 +44°C° 0 mm 3 mps 759 mmHg 10%
16:00 +43°C° 0 mm 4 mps 759 mmHg 11%
17:00 +42°C° 0 mm 4 mps 759 mmHg 12%
18:00 +41°C° 0 mm 5 mps 760 mmHg 13%
19:00 +40°C° 0 mm 4 mps 760 mmHg 16%
20:00 +37°C° 0 mm 3 mps 760 mmHg 19%
21:00 +36°C° 0 mm 2 mps 760 mmHg 21%
22:00 +35°C° 0 mm 3 mps 760 mmHg 23%
23:00 +35°C° 0 mm 3 mps 760 mmHg 24%

3 Agosto, Martes

Tiempo Temperatura Precipitaciones Viento Presión Humedad
00:00 +35°C° 0 mm 4 mps 760 mmHg 25%
01:00 +34°C° 0 mm 4 mps 760 mmHg 24%
02:00 +34°C° 0 mm 4 mps 760 mmHg 23%
03:00 +33°C° 0 mm 4 mps 760 mmHg 23%
04:00 +34°C° 0 mm 3 mps 760 mmHg 21%
05:00 +34°C° 0 mm 3 mps 761 mmHg 20%
06:00 +35°C° 0 mm 3 mps 761 mmHg 19%
07:00 +37°C° 0 mm 3 mps 761 mmHg 17%
08:00 +39°C° 0 mm 3 mps 761 mmHg 15%
09:00 +42°C° 0 mm 3 mps 761 mmHg 13%
10:00 +43°C° 0 mm 3 mps 760 mmHg 12%
11:00 +43°C° 0 mm 4 mps 760 mmHg 12%
12:00 +44°C° 0 mm 4 mps 760 mmHg 11%
13:00 +44°C° 0 mm 4 mps 760 mmHg 11%
14:00 +44°C° 0 mm 4 mps 759 mmHg 11%
15:00 +44°C° 0 mm 4 mps 759 mmHg 11%
16:00 +44°C° 0 mm 4 mps 759 mmHg 11%
17:00 +43°C° 0 mm 4 mps 759 mmHg 12%
18:00 +42°C° 0 mm 4 mps 759 mmHg 13%
19:00 +40°C° 0 mm 3 mps 759 mmHg 14%
20:00 +39°C° 0 mm 3 mps 759 mmHg 16%
21:00 +37°C° 0 mm 2 mps 760 mmHg 17%
22:00 +37°C° 0 mm 3 mps 760 mmHg 17%
23:00 +36°C° 0 mm 3 mps 760 mmHg 17%

4 Agosto, Miércoles

Tiempo Temperatura Precipitaciones Viento Presión Humedad
00:00 +35°C° 0 mm 3 mps 760 mmHg 18%
01:00 +35°C° 0 mm 3 mps 760 mmHg 18%
02:00 +34°C° 0 mm 3 mps 760 mmHg 18%
03:00 +34°C° 0 mm 3 mps 760 mmHg 18%
04:00 +34°C° 0 mm 3 mps 760 mmHg 18%
05:00 +35°C° 0 mm 3 mps 760 mmHg 18%
06:00 +35°C° 0 mm 3 mps 761 mmHg 18%
07:00 +37°C° 0 mm 3 mps 760 mmHg 16%
08:00 +40°C° 0 mm 3 mps 760 mmHg 14%
09:00 +43°C° 0 mm 4 mps 760 mmHg 11%
10:00 +44°C° 0 mm 3 mps 760 mmHg 11%
11:00 +44°C° 0 mm 3 mps 760 mmHg 10%
12:00 +45°C° 0 mm 3 mps 759 mmHg 10%
13:00 +45°C° 0 mm 4 mps 759 mmHg 10%
14:00 +45°C° 0 mm 4 mps 759 mmHg 10%
15:00 +45°C° 0 mm 4 mps 759 mmHg 10%
16:00 +44°C° 0 mm 4 mps 759 mmHg 11%
17:00 +44°C° 0 mm 4 mps 759 mmHg 11%
18:00 +43°C° 0 mm 4 mps 759 mmHg 12%
19:00 +40°C° 0 mm 3 mps 759 mmHg 14%
20:00 +38°C° 0 mm 3 mps 759 mmHg 16%
21:00 +37°C° 0 mm 3 mps 759 mmHg 18%
22:00 +36°C° 0 mm 3 mps 759 mmHg 18%
23:00 +36°C° 0 mm 3 mps 759 mmHg 18%
Mostrar más

Necesitamos Su Consentimiento

Meteoprog y nuestros Proveedores de Servicios pueden almacenar y acceder a sus datos personales como cookies, identificadores de dispositivo u otras tecnologías similares de su dispositivo y procesar dichos datos para personalizar contenido y anuncios, además de ofrecer funciones de redes sociales y analizar el tráfico.

  • Almacenar y/o acceder a información en su dispositivo

    Se puede almacenar o acceder a cookies, identificadores de dispositivo u otra información de su dispositivo para los fines anteriormente indicados.

  • Anuncios y contenido personalizados, medición de anuncios y contenido, percepciones del público, y desarrollo de productos

    Los anuncios y el contenido pueden personalizarse en base a su perfil. Se pueden añadir más datos para personalizar mejor los anuncios y contenidos. Se puede medir el rendimiento de los anuncios y contenidos. Se puede obtener la percepción sobre el público que ha visto los anuncios y contenidos. Dichos datos pueden usarse para desarrollar o mejorar la experiencia del usuario, sistemas y software.

Al hacer clic en ‘Estoy De Acuerdo’ usted permitirá el uso de las cookies, identificadores de dispositivo, balizas web u otras tecnologías similares indicadas. Su configuración puede cambiarse desde el navegador de su dispositivo.

Para ciertos fines, los intereses legítimos pueden ser considerados por encima del consentimiento. Puede leer más sobre ello en nuestra Política de Privacidad y Cookies.